Regional Weather Roundup
Issued by NWS Little Rock, AR

Home | Current Version | Previous Version | Graphics & Text | Print | Product List | Glossary On
Versions: 1 2 3 4 5 6 7 8 9 10 11 12 13 14 15 16 17 18 19 20 21 22 23 24 25 26 27 28 29 30 31 32 33 34 35 36 37 38 39 40 41 42 43 44 45 46 47 48 49 50
000
ASUS44 KLZK 231105
RWRLZK

WEATHER ROUNDUP FOR ARKANSAS
NATIONAL WEATHER SERVICE LITTLE ROCK AR
600 AM CDT TUE SEP 23 2014

NOTE: "FAIR" INDICATES FEW OR NO CLOUDS BELOW 12,000 FEET WITH NO
SIGNIFICANT WEATHER AND/OR OBSTRUCTIONS TO VISIBILITY.

ARZ001-003-010-029-231200-
NORTHWEST ARKANSAS

CITY           SKY/WX    TMP DP  RH WIND       PRES   REMARKS
FAYETTEVILLE   CLEAR     47  47 100 CALM      30.25R
FORT SMITH     PTCLDY    57  54  89 CALM      30.24R
HARRISON       CLEAR     49  49 100 SE6       30.26R
BENTONVILLE    CLEAR     52  48  87 S3        30.25S
ROGERS         CLEAR     54  50  86 E7        30.26R
SILOAM SPGS    PTCLDY    52  45  76 E3        30.25F
HIGHFILL       CLEAR     50  50 100 CALM      30.24S
SPRINGDALE     CLEAR     52  50  93 CALM      30.27
$$

ARZ004-005-016-231200-
NORTH CENTRAL ARKANSAS

CITY           SKY/WX    TMP DP  RH WIND       PRES   REMARKS
BATESVILLE     CLEAR     48  46  93 NW5       30.25R
FLIPPIN        CLOUDY    46  43  87 CALM      30.26S VSB 1/4
MTN HOME       CLEAR     49  49 100 CALM      30.25R
$$

ARZ040-041-231200-
WEST CENTRAL ARKANSAS

CITY           SKY/WX    TMP DP  RH WIND       PRES   REMARKS
MENA             N/A     50  46  87 CALM        N/A
MOUNT IDA      CLEAR     49  48  97 CALM      30.21R
$$

ARZ009-017-025-026-028-231200-
NORTHEAST ARKANSAS

CITY           SKY/WX    TMP DP  RH WIND       PRES   REMARKS
CORNING          N/A     48  48 100 NE6       30.27R
JONESBORO      CLEAR     53  49  86 NE7       30.25R
NEWPORT        CLEAR     48  47  97 N7        30.25S
WALNUT RIDGE   CLEAR     50  46  87 N5        30.25R
BLYTHEVILLE    CLEAR     48  46  93 N3        30.25R
$$

ARZ022-023-033-042-044-231200-
CENTRAL ARKANSAS

CITY           SKY/WX    TMP DP  RH WIND       PRES   REMARKS
LITTLE ROCK    CLEAR     54  47  77 NE6       30.23R
N LITTLE ROCK    N/A     54  50  85 NE6       30.23R
JACKSONVILLE   CLEAR     49  46  90 CALM      30.23R
SEARCY         CLEAR     53  47  80 VRB7      30.24R
HOT SPRINGS    LGT RAIN  53  51  93 CALM      30.24R
RUSSELLVILLE   CLEAR     51  49  92 CALM      30.24R
CLINTON        FAIR      46  46 100 CALM      30.26S
$$

ARZ036-231200-
EAST ARKANSAS

CITY           SKY/WX    TMP DP  RH WIND       PRES   REMARKS
WEST MEMPHIS   CLEAR     51  49  92 CALM      30.22R
$$

ARZ050-053-066-070-073-231200-
SOUTHWEST ARKANSAS

CITY           SKY/WX    TMP DP  RH WIND       PRES   REMARKS
ARKADELPHIA    FAIR      53  52  97 CALM      30.22R
CAMDEN         CLEAR     48  45  87 CALM      30.19S FOG
TEXARKANA      CLEAR     52  52 100 CALM      30.20S
EL DORADO      CLEAR     53  51  93 N3        30.18R
DE QUEEN       CLEAR     52  51  97 CALM      30.20S FOG
$$

ARZ056-057-069-231200-
SOUTHEAST ARKANSAS

CITY           SKY/WX    TMP DP  RH WIND       PRES   REMARKS
PINE BLUFF     CLEAR     55  48  77 NE7       30.21R
STUTTGART      CLEAR     54  46  76 NE7       30.22R
MONTICELLO     CLEAR     54  49  83 CALM      30.19R

$$




USA.gov is the U.S. government's official web portal to all federal, state and local government web resources and services.